Vorticity
7 7 10 13 8 14 11 17 13 19 15 23 24 22 10 25 27 14 11 5 -16 32 4 31 4 8 5 2 5 6 9 11 10 7 7 6 3 2 3 2 1 0 1 1
7 9 11 5 15 10 18 13 16 18 14 22 31 30 4 20 42 11 17 -13 -31 -33 -11 20 53 6 1 8 5 4 7 7 8 8 7 7 6 3 3 4 3 1 1 0
10 12 7 12 7 17 12 16 14 17 13 8 30 17 17 -10 29 23 23 0 18 23 14 32 25 20 21 2 7 9 -2 5 4 7 8 6 7 7 5 5 3 2 2 1
10 11 12 4 10 7 13 12 15 15 15 10 16 22 12 6 12 44 22 41 -15 -21 -19 36 1 -2 46 31 60 -4 6 -8 3 6 6 6 6 7 6 3 4 4 2 2
4 7 9 11 6 9 8 19 8 18 12 16 11 15 15 14 6 2 33 6 -18 23 16 50 1 13 -26 13 48 50 -2 -20 -13 -0 9 7 6 6 8 8 7 6 5 4
5 5 9 8 12 4 8 9 13 13 24 15 13 20 13 9 8 9 16 15 2 34 11 8 21 -3 34 22 -33 34 40 12 7 0 1 -3 3 9 9 6 7 8 6 4
7 5 6 8 12 11 6 19 9 11 8 15 22 10 10 12 7 5 18 5 8 5 14 17 3 4 -2 24 17 48 -44 48 8 23 6 10 -3 -8 7 10 8 6 5 7
5 8 6 6 7 7 10 10 10 6 6 8 19 16 12 8 8 16 11 6 -2 -13 -24 1 3 -6 9 8 12 30 -5 39 3 5 25 18 15 -6 -6 -9 1 4 5 8
8 6 7 7 7 9 9 11 11 16 15 3 6 15 18 22 14 8 7 7 20 24 27 5 6 -1 -4 -2 9 7 31 16 -11 14 3 16 63 3 55 7 59 -16 1 4
12 4 7 8 6 7 7 6 10 8 14 10 6 15 4 6 10 28 24 9 8 9 5 6 9 24 19 12 7 -2 4 16 19 16 1 7 10 19 8 21 10 17 50 44
10 7 7 8 7 5 12 5 6 8 4 12 10 17 10 8 13 12 8 18 25 21 11 5 5 6 5 9 9 6 10 9 7 10 8 5 15 8 -1 13 12 22 18 1
7 13 14 6 12 5 14 7 2 5 1 -2 13 -1 4 6 11 7 4 5 3 7 13 22 28 18 7 5 5 7 9 7 6 6 4 8 4 11 2 7 4 14 8 17
12 13 10 7 12 11 7 6 8 5 6 5 1 7 3 6 10 10 15 9 9 9 5 1 3 11 24 26 18 12 10 8 6 7 7 8 8 6 6 8 6 1 11 3
13 12 6 11 9 8 10 2 0 0 12 -8 5 0 -1 4 1 1 5 8 7 9 16 16 10 5 3 3 7 18 29 26 15 12 9 8 8 10 9 11 2 13 5 17
12 4 21 14 9 10 1 1 1 8 -0 -3 7 11 -4 13 6 1 8 6 3 3 6 8 14 16 10 9 5 5 5 7 16 32 19 13 12 8 9 16 16 -8 -1 8
18 20 17 10 8 4 -1 6 -4 -1 13 11 5 8 4 6 10 13 13 8 5 3 5 5 8 11 12 16 13 11 6 4 4 12 23 24 17 18 12 8 12 25 0 1
13 6 11 -12 2 3 -2 3 4 1 8 6 2 9 12 9 8 2 8 1 6 8 6 5 5 6 7 8 8 12 15 12 6 5 10 15 17 15 15 18 15 10 10 11
3 5 6 4 5 -0 6 2 3 2 1 8 5 7 8 6 9 7 7 7 4 6 12 13 9 10 10 7 7 9 6 9 12 9 5 7 11 13 15 14 13 18 19 18
2 5 3 1 4 6 -2 4 6 7 7 7 9 4 5 7 6 8 6 9 10 9 3 4 6 5 5 10 11 8 8 6 8 11 10 7 6 8 10 11 13 14 12 14
3 3 4 3 5 7 5 8 7 4 6 6 6 7 7 5 5 7 4 5 7 8 8 7 4 6 9 9 8 11 12 9 11 7 11 11 9 7 7 9 10 12 12 11
3 1 3 4 6 4 4 -0 6 5 5 2 6 6 3 5 8 6 5 6 6 5 5 6 8 9 7 6 6 8 9 8 9 9 7 9 12 12 12 9 7 10 11 12
5 4 5 5 5 5 8 7 8 6 6 7 6 7 8 7 6 7 6 5 7 6 6 5 6 6 5 7 9 10 11 7 10 6 9 8 10 12 11 15 11 8 8 8
6 6 8 8 7 5 11 9 8 7 7 7 6 5 6 6 5 6 7 6 6 5 5 4 4 5 4 3 6 9 3 9 8 8 14 11 7 10 11 17 9 20 14 8
5 8 8 12 8 6 7 9 9 8 8 10 12 12 11 9 9 10 11 11 11 12 11 10 8 8 7 7 7 9 7 6 8 8 10 8 13 9 14 12 13 9 10 17
12 13 11 11 9 10 11 12 12 12 16 18 21 18 18 19 19 17 16 15 14 14 12 12 11 10 10 9 10 11 11 8 10 11 8 12 11 10 11 8 19 12 9 6
12 9 13 14 15 15 12 13 10 13 17 18 19 14 24 37 50 52 52 52 57 50 46 44 43 45 45 36 30 24 25 19 14 22 16 15 13 11 10 11 18 17 4 13
Height
5715 5709 5702 5693 5685 5679 5673 5667 5662 5659 5658 5657 5658 5662 5667 5676 5682 5690 5698 5705 5708 5707 5712 5716 5730 5740 5750 5757 5763 5769 5775 5780 5785 5791 5795 5799 5803 5806 5809 5811 5814 5817 5819 5822
5718 5710 5703 5694 5687 5681 5674 5669 5664 5661 5659 5658 5659 5663 5668 5676 5681 5687 5694 5699 5701 5704 5712 5718 5727 5734 5744 5748 5754 5760 5765 5770 5776 5781 5786 5790 5794 5797 5800 5804 5807 5809 5811 5813
5717 5711 5703 5697 5691 5684 5678 5673 5668 5664 5662 5660 5662 5664 5669 5676 5681 5686 5691 5696 5700 5706 5708 5709 5715 5726 5735 5740 5744 5750 5756 5761 5766 5772 5777 5782 5787 5790 5794 5797 5799 5801 5803 5804
5718 5712 5707 5700 5693 5687 5681 5676 5671 5667 5665 5663 5666 5669 5673 5678 5682 5685 5689 5695 5699 5704 5705 5706 5712 5719 5723 5729 5735 5740 5747 5752 5757 5762 5768 5773 5778 5781 5784 5787 5788 5791 5795 5797
5721 5715 5709 5702 5695 5689 5685 5678 5674 5671 5669 5667 5667 5671 5673 5678 5683 5686 5690 5696 5698 5701 5701 5705 5707 5712 5714 5717 5722 5733 5737 5742 5746 5753 5760 5764 5768 5772 5775 5779 5781 5784 5786 5788
5721 5714 5709 5701 5696 5692 5687 5682 5679 5675 5673 5671 5670 5672 5674 5678 5681 5684 5690 5694 5697 5700 5703 5705 5704 5708 5711 5716 5718 5722 5730 5733 5738 5743 5746 5751 5757 5762 5766 5770 5773 5775 5777 5778
5720 5713 5707 5705 5700 5694 5691 5688 5683 5680 5675 5674 5673 5674 5675 5676 5681 5684 5689 5694 5698 5699 5701 5703 5704 5708 5709 5713 5715 5720 5723 5726 5729 5733 5737 5740 5742 5746 5752 5757 5762 5764 5766 5769
5717 5712 5706 5703 5700 5693 5689 5685 5682 5680 5678 5676 5676 5676 5676 5677 5679 5683 5686 5691 5693 5695 5695 5697 5700 5702 5703 5709 5710 5715 5715 5718 5723 5726 5729 5732 5736 5738 5741 5745 5749 5751 5754 5756
5715 5712 5707 5701 5699 5697 5692 5689 5686 5684 5682 5679 5677 5679 5677 5678 5679 5680 5682 5686 5690 5692 5694 5695 5697 5697 5699 5702 5704 5706 5708 5709 5712 5717 5718 5722 5725 5726 5731 5737 5737 5737 5740 5742
5712 5710 5706 5702 5699 5696 5693 5691 5689 5685 5684 5681 5679 5679 5679 5680 5679 5679 5680 5681 5684 5685 5688 5689 5689 5692 5693 5694 5695 5698 5700 5703 5705 5706 5709 5713 5715 5715 5719 5722 5724 5726 5726 5727
5706 5707 5705 5699 5696 5695 5691 5689 5688 5685 5684 5682 5681 5680 5678 5678 5678 5679 5679 5678 5677 5679 5681 5682 5682 5682 5682 5681 5682 5684 5688 5690 5692 5694 5696 5700 5702 5703 5706 5709 5710 5712 5713 5713
5701 5699 5699 5698 5694 5692 5691 5686 5686 5685 5683 5681 5680 5679 5679 5678 5676 5676 5677 5677 5677 5675 5672 5672 5673 5675 5676 5677 5677 5676 5676 5678 5679 5680 5684 5687 5688 5689 5692 5696 5696 5696 5698 5699
5695 5694 5692 5693 5693 5689 5687 5686 5684 5684 5682 5678 5679 5678 5674 5675 5675 5673 5672 5671 5671 5672 5671 5669 5667 5666 5665 5664 5664 5665 5666 5667 5668 5669 5669 5670 5674 5676 5677 5681 5681 5684 5686 5689
5688 5692 5689 5685 5685 5687 5685 5682 5680 5679 5678 5680 5677 5677 5669 5671 5670 5669 5667 5666 5665 5664 5665 5664 5662 5658 5656 5656 5657 5656 5655 5655 5654 5654 5655 5657 5659 5660 5660 5663 5667 5668 5671 5673
5686 5685 5685 5681 5680 5680 5680 5678 5675 5674 5671 5668 5671 5672 5665 5667 5668 5665 5662 5659 5656 5655 5655 5654 5654 5653 5651 5648 5646 5644 5643 5642 5640 5640 5640 5641 5643 5645 5648 5650 5651 5650 5655 5658
5681 5678 5680 5678 5674 5675 5675 5671 5669 5669 5664 5663 5660 5662 5658 5657 5656 5654 5652 5649 5647 5646 5644 5642 5642 5641 5639 5638 5636 5635 5634 5633 5632 5630 5628 5627 5628 5630 5632 5635 5637 5638 5640 5641
5676 5673 5671 5676 5670 5670 5669 5664 5661 5659 5660 5658 5655 5653 5652 5650 5646 5642 5641 5639 5637 5634 5631 5630 5630 5628 5627 5626 5624 5622 5621 5620 5619 5619 5618 5616 5615 5616 5617 5619 5621 5623 5626 5628
5670 5668 5665 5662 5662 5661 5656 5651 5648 5649 5647 5644 5642 5641 5638 5636 5633 5633 5630 5625 5621 5619 5619 5617 5615 5613 5612 5610 5608 5608 5605 5604 5604 5604 5605 5605 5604 5604 5604 5605 5606 5608 5610 5612
5664 5661 5657 5653 5651 5648 5646 5640 5637 5634 5633 5630 5630 5628 5626 5623 5619 5615 5613 5611 5608 5604 5601 5600 5597 5596 5595 5594 5592 5591 5592 5591 5590 5590 5590 5590 5591 5591 5591 5591 5592 5593 5594 5596
5659 5655 5649 5645 5640 5636 5633 5630 5626 5623 5620 5618 5613 5610 5608 5607 5605 5604 5599 5595 5592 5589 5585 5583 5580 5579 5579 5580 5579 5578 5576 5575 5575 5573 5574 5575 5575 5576 5577 5577 5578 5580 5581 5582
5643 5638 5634 5630 5624 5623 5620 5617 5612 5607 5608 5599 5595 5592 5589 5587 5583 5584 5579 5575 5571 5569 5566 5563 5562 5560 5559 5559 5558 5560 5561 5561 5558 5558 5559 5559 5560 5560 5561 5562 5564 5565 5566 5568
5631 5626 5621 5615 5610 5609 5605 5601 5597 5591 5583 5579 5577 5572 5570 5565 5562 5558 5557 5556 5552 5548 5546 5543 5540 5539 5540 5538 5536 5538 5541 5542 5542 5541 5542 5543 5544 5545 5546 5547 5549 5551 5553 5554
5618 5614 5609 5603 5596 5590 5589 5583 5577 5571 5567 5562 5555 5552 5548 5545 5541 5538 5535 5531 5528 5525 5521 5517 5516 5517 5518 5514 5512 5514 5517 5518 5522 5523 5524 5526 5527 5529 5531 5532 5534 5535 5537 5540
5602 5596 5592 5584 5579 5567 5567 5562 5557 5552 5546 5541 5535 5530 5525 5522 5516 5513 5509 5505 5502 5499 5496 5491 5488 5487 5488 5487 5487 5489 5490 5495 5498 5502 5505 5507 5510 5513 5515 5517 5518 5520 5522 5525
5586 5580 5575 5567 5560 5552 5542 5537 5534 5528 5523 5517 5509 5504 5499 5495 5491 5486 5482 5478 5473 5469 5467 5463 5460 5458 5459 5456 5458 5461 5463 5466 5474 5478 5482 5487 5490 5495 5498 5502 5502 5504 5507 5509
5565 5560 5555 5547 5541 5534 5527 5519 5511 5507 5504 5499 5495 5486 5477 5473 5469 5463 5457 5452 5447 5443 5439 5436 5433 5428 5428 5427 5429 5432 5435 5440 5444 5453 5458 5464 5470 5475 5480 5485 5486 5488 5490 5494